owner,sensor,date,latitude,longitude,vertical_datum,wind_speed,wind_to_direction,wind_speed_of_gust,qcFlag 
TABS,ioos:station:wmo:42043:1,2014-07-01T00:00:00Z,28.9818,-94.9186,4.0,6.594095844,170.3093575,8.29,'11111222,11111222,11111222' 
TABS,ioos:station:wmo:42043:1,2014-07-01T00:30:00Z,28.9818,-94.9186,4.0,6.394098842,172.5417772,7.86,'11111222,11111222,11111222' 
TABS,ioos:station:wmo:42043:1,2014-07-01T01:00:00Z,28.9818,-94.9186,4.0,6.000966589,173.301545,8.13,'11111222,11111222,11111222' 
TABS,ioos:station:wmo:42043:1,2014-07-01T01:30:00Z,28.9818,-94.9186,4.0,5.784202624,172.1502992,7.79,'11111222,11111222,11111222' 
TABS,ioos:station:wmo:42043:1,2014-07-01T02:00:00Z,28.9818,-94.9186,4.0,6.423122294,170.772547,8.3,'11111222,11111222,11111222' 
TABS,ioos:station:wmo:42043:1,2014-07-01T02:30:00Z,28.9818,-94.9186,4.0,6.276463973,172.3090667,8.4,'11111222,11111222,11111222' 
TABS,ioos:station:wmo:42043:1,2014-07-01T03:00:00Z,28.9818,-94.9186,4.0,6.363175308,173.3219514,8.05,'11111222,11111222,11111222' 
TABS,ioos:station:wmo:42043:1,2014-07-01T03:30:00Z,28.9818,-94.9186,4.0,6.860619506,172.3779911,8.51,'11111222,11111222,11111222' 
TABS,ioos:station:wmo:42043:1,2014-07-01T04:00:00Z,28.9818,-94.9186,4.0,7.265046455,172.3274118,9.41,'11111222,11111222,11111222' 
TABS,ioos:station:wmo:42043:1,2014-07-01T04:30:00Z,28.9818,-94.9186,4.0,7.528412847,169.8247234,9.35,'11111222,11111222,11111222' 
TABS,ioos:station:wmo:42043:1,2014-07-01T05:00:00Z,28.9818,-94.9186,4.0,7.129074274,172.0178839,9.02,'11111222,11111222,11111222' 
TABS,ioos:station:wmo:42043:1,2014-07-01T05:30:00Z,28.9818,-94.9186,4.0,7.437533193,172.2732273,9.47,'11111222,11111222,11111222' 
TABS,ioos:station:wmo:42043:1,2014-07-01T06:00:00Z,28.9818,-94.9186,4.0,7.29451849,171.8034785,9.88,'11111222,11111222,11111222' 
TABS,ioos:station:wmo:42043:1,2014-07-01T06:30:00Z,28.9818,-94.9186,4.0,7.26482622,171.7697455,9.11,'11111222,11111222,11111222' 
TABS,ioos:station:wmo:42043:1,2014-07-01T07:00:00Z,28.9818,-94.9186,4.0,7.63890699,174.2149979,9.68,'11111222,11111222,11111222' 
TABS,ioos:station:wmo:42043:1,2014-07-01T07:30:00Z,28.9818,-94.9186,4.0,7.839904336,174.2169113,9.88,'11111222,11111222,11111222' 
TABS,ioos:station:wmo:42043:1,2014-07-01T08:00:00Z,28.9818,-94.9186,4.0,8.250490894,179.3751918,10.62,'11111222,11111222,11111222' 
TABS,ioos:station:wmo:42043:1,2014-07-01T08:30:00Z,28.9818,-94.9186,4.0,7.730232855,179.5554925,9.61,'11111222,11111222,11111222' 
TABS,ioos:station:wmo:42043:1,2014-07-01T09:00:00Z,28.9818,-94.9186,4.0,7.31002736,179.8434512,9.48,'11111222,11111222,11111222' 
TABS,ioos:station:wmo:42043:1,2014-07-01T09:30:00Z,28.9818,-94.9186,4.0,7.15252403,178.4780271,8.83,'11111222,11111222,11111222' 
TABS,ioos:station:wmo:42043:1,2014-07-01T10:00:00Z,28.9818,-94.9186,4.0,7.126864668,183.9426218,8.74,'11111222,11111222,11111222' 
TABS,ioos:station:wmo:42043:1,2014-07-01T10:30:00Z,28.9818,-94.9186,4.0,6.589271583,192.6233026,8.21,'11111222,11111222,11111222' 
TABS,ioos:station:wmo:42043:1,2014-07-01T11:00:00Z,28.9818,-94.9186,4.0,5.660141341,190.7939535,7.6,'11111222,11111222,11111222' 
TABS,ioos:station:wmo:42043:1,2014-07-01T11:30:00Z,28.9818,-94.9186,4.0,5.159089067,187.9104103,6.79,'11111222,11111222,11111222' 
TABS,ioos:station:wmo:42043:1,2014-07-01T12:00:00Z,28.9818,-94.9186,4.0,4.877140556,200.7762042,6.29,'11111222,11111222,11111222' 
TABS,ioos:station:wmo:42043:1,2014-07-01T12:30:00Z,28.9818,-94.9186,4.0,3.981281201,190.8585345,4.9,'11111222,11111222,11111222' 
TABS,ioos:station:wmo:42043:1,2014-07-01T13:00:00Z,28.9818,-94.9186,4.0,4.011234224,175.7110672,5.4,'11111222,11111222,11111222' 
TABS,ioos:station:wmo:42043:1,2014-07-01T13:30:00Z,28.9818,-94.9186,4.0,4.445424614,184.7745445,5.44,'11111222,11111222,11111222' 
TABS,ioos:station:wmo:42043:1,2014-07-01T14:00:00Z,28.9818,-94.9186,4.0,4.285568807,192.1229521,5.64,'11111222,11111222,11111222' 
TABS,ioos:station:wmo:42043:1,2014-07-01T14:30:00Z,28.9818,-94.9186,4.0,4.326118353,188.3737848,5.49,'11111222,11111222,11111222' 
TABS,ioos:station:wmo:42043:1,2014-07-01T15:00:00Z,28.9818,-94.9186,4.0,5.20586208,186.7293209,6.54,'11111222,11111222,11111222' 
TABS,ioos:station:wmo:42043:1,2014-07-01T15:30:00Z,28.9818,-94.9186,4.0,4.830165629,179.5257232,6.07,'11111222,11111222,11111222' 
TABS,ioos:station:wmo:42043:1,2014-07-01T16:00:00Z,28.9818,-94.9186,4.0,3.961022595,181.3021601,5.19,'11111222,11111222,11111222' 
TABS,ioos:station:wmo:42043:1,2014-07-01T16:30:00Z,28.9818,-94.9186,4.0,3.47828981,176.0437001,4.4,'11111222,11111222,11111222' 
TABS,ioos:station:wmo:42043:1,2014-07-01T17:00:00Z,28.9818,-94.9186,4.0,3.497384737,171.6152755,4.67,'11111222,11111222,11111222' 
TABS,ioos:station:wmo:42043:1,2014-07-01T17:30:00Z,28.9818,-94.9186,4.0,3.916375876,159.9921526,4.94,'11111222,11111222,11111222' 
TABS,ioos:station:wmo:42043:1,2014-07-01T18:00:00Z,28.9818,-94.9186,4.0,4.266204402,166.0291455,5.46,'11111222,11111222,11111222' 
TABS,ioos:station:wmo:42043:1,2014-07-01T18:30:00Z,28.9818,-94.9186,4.0,4.219691932,160.19116,5.37,'11111222,11111222,11111222' 
TABS,ioos:station:wmo:42043:1,2014-07-01T19:00:00Z,28.9818,-94.9186,4.0,4.040309394,156.6713301,5.17,'11111222,11111222,11111222' 
TABS,ioos:station:wmo:42043:1,2014-07-01T19:30:00Z,28.9818,-94.9186,4.0,3.045472049,162.2197437,3.82,'11111222,11111222,11111222' 
TABS,ioos:station:wmo:42043:1,2014-07-01T20:00:00Z,28.9818,-94.9186,4.0,3.567996637,165.2239884,4.62,'11111222,11111222,11111222' 
TABS,ioos:station:wmo:42043:1,2014-07-01T20:30:00Z,28.9818,-94.9186,4.0,3.278322742,172.4633309,4.17,'11111222,11111222,11111222' 
TABS,ioos:station:wmo:42043:1,2014-07-01T21:00:00Z,28.9818,-94.9186,4.0,2.866810074,173.7924578,3.76,'11111222,11111222,11111222' 
TABS,ioos:station:wmo:42043:1,2014-07-01T21:30:00Z,28.9818,-94.9186,4.0,2.984845055,164.0548518,4.05,'11111222,11111222,11111222' 
TABS,ioos:station:wmo:42043:1,2014-07-01T22:00:00Z,28.9818,-94.9186,4.0,3.546110545,170.7504106,4.54,'11111222,11111222,11111222' 
TABS,ioos:station:wmo:42043:1,2014-07-01T22:30:00Z,28.9818,-94.9186,4.0,3.447027705,183.6594834,4.26,'11111222,11111222,11111222' 
TABS,ioos:station:wmo:42043:1,2014-07-01T23:00:00Z,28.9818,-94.9186,4.0,3.299515116,167.3960926,4.31,'11111222,11111222,11111222' 
TABS,ioos:station:wmo:42043:1,2014-07-01T23:30:00Z,28.9818,-94.9186,4.0,4.157884077,172.2598874,5.57,'11111222,11111222,11111222' 
TABS,ioos:station:wmo:42043:1,2014-07-02T00:00:00Z,28.9818,-94.9186,4.0,4.571487723,168.518246,5.8,'11111222,11111222,11111222' 
TABS,ioos:station:wmo:42043:1,2014-07-02T00:30:00Z,28.9818,-94.9186,4.0,4.180011962,173.1302342,5.24,'11111222,11111222,11111222' 
TABS,ioos:station:wmo:42043:1,2014-07-02T01:00:00Z,28.9818,-94.9186,4.0,3.882396167,175.4204156,5.02,'11111222,11111222,11111222' 
TABS,ioos:station:wmo:42043:1,2014-07-02T01:30:00Z,28.9818,-94.9186,4.0,5.141984053,166.5045087,6.54,'11111222,11111222,11111222' 
TABS,ioos:station:wmo:42043:1,2014-07-02T02:00:00Z,28.9818,-94.9186,4.0,5.640469839,159.9911151,7.16,'11111222,11111222,11111222' 
TABS,ioos:station:wmo:42043:1,2014-07-02T02:30:00Z,28.9818,-94.9186,4.0,6.210346206,159.0554814,7.9,'11111222,11111222,11111222' 
TABS,ioos:station:wmo:42043:1,2014-07-02T03:00:00Z,28.9818,-94.9186,4.0,6.005206075,166.1259822,7.27,'11111222,11111222,11111222' 
TABS,ioos:station:wmo:42043:1,2014-07-02T03:30:00Z,28.9818,-94.9186,4.0,5.868091683,167.100763,7.46,'11111222,11111222,11111222' 
TABS,ioos:station:wmo:42043:1,2014-07-02T04:00:00Z,28.9818,-94.9186,4.0,5.082066509,176.0511551,6.36,'11111222,11111222,11111222' 
TABS,ioos:station:wmo:42043:1,2014-07-02T04:30:00Z,28.9818,-94.9186,4.0,4.063409898,172.6478483,5.28,'11111222,11111222,11111222' 
TABS,ioos:station:wmo:42043:1,2014-07-02T05:00:00Z,28.9818,-94.9186,4.0,3.520056818,180.3257504,4.63,'11111222,11111222,11111222' 
TABS,ioos:station:wmo:42043:1,2014-07-02T05:30:00Z,28.9818,-94.9186,4.0,3.230758425,178.7587035,4.08,'11111222,11111222,11111222' 
TABS,ioos:station:wmo:42043:1,2014-07-02T06:00:00Z,28.9818,-94.9186,4.0,3.871860018,178.2241704,5.33,'11111222,11111222,11111222' 
TABS,ioos:station:wmo:42043:1,2014-07-02T06:30:00Z,28.9818,-94.9186,4.0,3.85591753,174.7923409,5.15,'11111222,11111222,11111222' 
TABS,ioos:station:wmo:42043:1,2014-07-02T07:00:00Z,28.9818,-94.9186,4.0,3.303876511,182.7760074,4.52,'11111222,11111222,11111222' 
TABS,ioos:station:wmo:42043:1,2014-07-02T07:30:00Z,28.9818,-94.9186,4.0,3.183080269,182.5210325,4.1,'11111222,11111222,11111222' 
TABS,ioos:station:wmo:42043:1,2014-07-02T08:00:00Z,28.9818,-94.9186,4.0,2.987206052,189.0525872,3.66,'11111222,11111222,11111222' 
TABS,ioos:station:wmo:42043:1,2014-07-02T08:30:00Z,28.9818,-94.9186,4.0,3.067523431,187.6812362,4.02,'11111222,11111222,11111222' 
TABS,ioos:station:wmo:42043:1,2014-07-02T09:00:00Z,28.9818,-94.9186,4.0,2.54125953,181.8042014,3.46,'11111222,11111222,11111222' 
TABS,ioos:station:wmo:42043:1,2014-07-02T09:30:00Z,28.9818,-94.9186,4.0,1.882471779,188.8620541,2.46,'11111222,11111222,11111222' 
TABS,ioos:station:wmo:42043:1,2014-07-02T10:00:00Z,28.9818,-94.9186,4.0,2.111421322,188.16867,2.76,'11111222,11111222,11111222' 
TABS,ioos:station:wmo:42043:1,2014-07-02T10:30:00Z,28.9818,-94.9186,4.0,2.092964405,190.1826064,2.67,'11111222,11111222,11111222' 
TABS,ioos:station:wmo:42043:1,2014-07-02T11:00:00Z,28.9818,-94.9186,4.0,2.07021738,179.1698969,2.87,'11111222,11111222,11111222' 
TABS,ioos:station:wmo:42043:1,2014-07-02T11:30:00Z,28.9818,-94.9186,4.0,2.18,180.0002105,2.77,'11111222,11111222,11111222' 
TABS,ioos:station:wmo:42043:1,2014-07-02T12:00:00Z,28.9818,-94.9186,4.0,2.240089284,180.5117651,2.93,'11111222,11111222,11111222' 
TABS,ioos:station:wmo:42043:1,2014-07-02T12:30:00Z,28.9818,-94.9186,4.0,2.14704448,187.2245093,2.83,'11111222,11111222,11111222' 
TABS,ioos:station:wmo:42043:1,2014-07-02T13:00:00Z,28.9818,-94.9186,4.0,1.937524193,187.7120848,2.7,'11111222,11111222,11111222' 
TABS,ioos:station:wmo:42043:1,2014-07-02T13:30:00Z,28.9818,-94.9186,4.0,1.754536976,223.1524993,2.41,'11111222,11111222,11111222' 
TABS,ioos:station:wmo:42043:1,2014-07-02T14:00:00Z,28.9818,-94.9186,4.0,1.4689452,248.8505234,2.2,'11111222,11111222,11111222' 
TABS,ioos:station:wmo:42043:1,2014-07-02T14:30:00Z,28.9818,-94.9186,4.0,1.407302384,278.9937714,2.26,'11111222,11111222,11111222' 
TABS,ioos:station:wmo:42043:1,2014-07-02T15:00:00Z,28.9818,-94.9186,4.0,1.686683136,275.1021533,2.5,'11111222,11111222,11111222' 
TABS,ioos:station:wmo:42043:1,2014-07-02T15:30:00Z,28.9818,-94.9186,4.0,1.288759093,263.3161515,2.04,'11111222,11111222,11111222' 
TABS,ioos:station:wmo:42043:1,2014-07-02T16:00:00Z,28.9818,-94.9186,4.0,0.651920241,159.3413487,1.08,'11111222,11111222,11111222' 
TABS,ioos:station:wmo:42043:1,2014-07-02T16:30:00Z,28.9818,-94.9186,4.0,0.187882942,205.2012752,0.68,'11111222,11111222,11111222' 
TABS,ioos:station:wmo:42043:1,2014-07-02T17:00:00Z,28.9818,-94.9186,4.0,1.348925498,164.5216085,2.96,'11111222,11111222,11111222' 
TABS,ioos:station:wmo:42043:1,2014-07-02T17:30:00Z,28.9818,-94.9186,4.0,2.411514047,148.221565,3.55,'11111222,11111222,11111222' 
TABS,ioos:station:wmo:42043:1,2014-07-02T18:00:00Z,28.9818,-94.9186,4.0,2.225690904,156.4298493,3.04,'11111222,11111222,11111222' 
TABS,ioos:station:wmo:42043:1,2014-07-02T18:30:00Z,28.9818,-94.9186,4.0,2.008108563,145.7562756,2.69,'11111222,11111222,11111222' 
TABS,ioos:station:wmo:42043:1,2014-07-02T19:00:00Z,28.9818,-94.9186,4.0,2.601691757,146.9210264,3.74,'11111222,11111222,11111222' 
TABS,ioos:station:wmo:42043:1,2014-07-02T19:30:00Z,28.9818,-94.9186,4.0,3.191002977,144.5669793,4.49,'11111222,11111222,11111222' 
TABS,ioos:station:wmo:42043:1,2014-07-02T20:00:00Z,28.9818,-94.9186,4.0,4.305728742,141.5067472,5.64,'11111222,11111222,11111222' 
TABS,ioos:station:wmo:42043:1,2014-07-02T20:30:00Z,28.9818,-94.9186,4.0,4.028001986,143.0735017,5.33,'11111222,11111222,11111222' 
TABS,ioos:station:wmo:42043:1,2014-07-02T21:00:00Z,28.9818,-94.9186,4.0,3.351790566,138.7500587,4.57,'11111222,11111222,11111222' 
TABS,ioos:station:wmo:42043:1,2014-07-02T21:30:00Z,28.9818,-94.9186,4.0,3.126563609,136.5554716,4.49,'11111222,11111222,11111222' 
TABS,ioos:station:wmo:42043:1,2014-07-02T22:00:00Z,28.9818,-94.9186,4.0,3.479885056,154.4661372,4.71,'11111222,11111222,11111222' 
TABS,ioos:station:wmo:42043:1,2014-07-02T22:30:00Z,28.9818,-94.9186,4.0,3.779232726,157.4387086,5.12,'11111222,11111222,11111222' 
TABS,ioos:station:wmo:42043:1,2014-07-02T23:00:00Z,28.9818,-94.9186,4.0,4.04738187,150.7119281,5.09,'11111222,11111222,11111222' 
TABS,ioos:station:wmo:42043:1,2014-07-02T23:30:00Z,28.9818,-94.9186,4.0,3.376166465,165.593559,4.17,'11111222,11111222,11111222' 
TABS,ioos:station:wmo:42043:1,2014-07-03T00:00:00Z,28.9818,-94.9186,4.0,3.401558466,170.0117689,4.19,'11111222,11111222,11111222' 
TABS,ioos:station:wmo:42043:1,2014-07-03T00:30:00Z,28.9818,-94.9186,4.0,3.389232952,184.2303513,4.42,'11111222,11111222,11111222' 
TABS,ioos:station:wmo:42043:1,2014-07-03T01:00:00Z,28.9818,-94.9186,4.0,3.195653298,176.591644,4.1,'11111222,11111222,11111222' 
TABS,ioos:station:wmo:42043:1,2014-07-03T01:30:00Z,28.9818,-94.9186,4.0,3.340538879,178.9710581,4.1,'11111222,11111222,11111222' 
TABS,ioos:station:wmo:42043:1,2014-07-03T02:00:00Z,28.9818,-94.9186,4.0,2.849859646,194.4265131,3.62,'11111222,11111222,11111222' 
TABS,ioos:station:wmo:42043:1,2014-07-03T02:30:00Z,28.9818,-94.9186,4.0,2.160925728,172.0201154,3.27,'11111222,11111222,11111222' 
TABS,ioos:station:wmo:42043:1,2014-07-03T03:00:00Z,28.9818,-94.9186,4.0,2.192555587,166.2808973,3.02,'11111222,11111222,11111222' 
TABS,ioos:station:wmo:42043:1,2014-07-03T03:30:00Z,28.9818,-94.9186,4.0,1.621974106,182.8273284,2.91,'11111222,11111222,11111222' 
TABS,ioos:station:wmo:42043:1,2014-07-03T04:00:00Z,28.9818,-94.9186,4.0,2.416298823,164.6411427,3.33,'11111222,11111222,11111222' 
TABS,ioos:station:wmo:42043:1,2014-07-03T04:30:00Z,28.9818,-94.9186,4.0,3.45325933,182.4897576,4.3,'11111222,11111222,11111222' 
TABS,ioos:station:wmo:42043:1,2014-07-03T05:00:00Z,28.9818,-94.9186,4.0,2.944418449,193.7532489,3.86,'11111222,11111222,11111222' 
TABS,ioos:station:wmo:42043:1,2014-07-03T05:30:00Z,28.9818,-94.9186,4.0,3.109421168,204.9168589,3.83,'11111222,11111222,11111222' 
TABS,ioos:station:wmo:42043:1,2014-07-03T06:00:00Z,28.9818,-94.9186,4.0,2.42843571,206.1431398,3.27,'11111222,11111222,11111222' 
TABS,ioos:station:wmo:42043:1,2014-07-03T06:30:00Z,28.9818,-94.9186,4.0,2.160208323,189.5933223,3.21,'11111222,11111222,11111222' 
TABS,ioos:station:wmo:42043:1,2014-07-03T07:00:00Z,28.9818,-94.9186,4.0,2.953574106,190.9296729,4.31,'11111222,11111222,11111222' 
TABS,ioos:station:wmo:42043:1,2014-07-03T07:30:00Z,28.9818,-94.9186,4.0,2.486222034,193.2538951,3.26,'11111222,11111222,11111222' 
TABS,ioos:station:wmo:42043:1,2014-07-03T08:00:00Z,28.9818,-94.9186,4.0,2.482780699,201.5015945,3.28,'11111222,11111222,11111222' 
TABS,ioos:station:wmo:42043:1,2014-07-03T08:30:00Z,28.9818,-94.9186,4.0,0.997296345,206.8221289,2.33,'11111222,11111222,11111222' 
TABS,ioos:station:wmo:42043:1,2014-07-03T09:00:00Z,28.9818,-94.9186,4.0,1.775049295,213.5111509,2.84,'11111222,11111222,11111222' 
TABS,ioos:station:wmo:42043:1,2014-07-03T09:30:00Z,28.9818,-94.9186,4.0,2.697424698,222.1452071,3.69,'11111222,11111222,11111222' 
TABS,ioos:station:wmo:42043:1,2014-07-03T10:00:00Z,28.9818,-94.9186,4.0,1.978913844,246.1551567,2.76,'11111222,11111222,11111222' 
TABS,ioos:station:wmo:42043:1,2014-07-03T10:30:00Z,28.9818,-94.9186,4.0,2.368121618,232.5495093,3.07,'11111222,11111222,11111222' 
TABS,ioos:station:wmo:42043:1,2014-07-03T11:00:00Z,28.9818,-94.9186,4.0,3.001666204,263.1117578,3.93,'11111222,11111222,11111222' 
TABS,ioos:station:wmo:42043:1,2014-07-03T11:30:00Z,28.9818,-94.9186,4.0,2.638730755,248.1986415,3.63,'11111222,11111222,11111222' 
TABS,ioos:station:wmo:42043:1,2014-07-03T12:00:00Z,28.9818,-94.9186,4.0,2.277059507,261.1582061,3.24,'11111222,11111222,11111222' 
TABS,ioos:station:wmo:42043:1,2014-07-03T12:30:00Z,28.9818,-94.9186,4.0,3.286000609,300.5450386,4.06,'11111222,11111222,11111222' 
TABS,ioos:station:wmo:42043:1,2014-07-03T13:00:00Z,28.9818,-94.9186,4.0,2.836212263,313.7141734,3.56,'11111222,11111222,11111222' 
TABS,ioos:station:wmo:42043:1,2014-07-03T13:30:00Z,28.9818,-94.9186,4.0,3.574982517,320.7894097,4.84,'11111222,11111222,11111222' 
TABS,ioos:station:wmo:42043:1,2014-07-03T14:00:00Z,28.9818,-94.9186,4.0,3.957473942,321.566178,5.12,'11111222,11111222,11111222' 
TABS,ioos:station:wmo:42043:1,2014-07-03T14:30:00Z,28.9818,-94.9186,4.0,4.082670695,324.1685409,4.95,'11111222,11111222,11111222' 
TABS,ioos:station:wmo:42043:1,2014-07-03T15:00:00Z,28.9818,-94.9186,4.0,3.535647041,338.0780622,4.41,'11111222,11111222,11111222' 
TABS,ioos:station:wmo:42043:1,2014-07-03T15:30:00Z,28.9818,-94.9186,4.0,4.114681033,353.7211216,5.23,'11111222,11111222,11111222' 
TABS,ioos:station:wmo:42043:1,2014-07-03T16:00:00Z,28.9818,-94.9186,4.0,3.496569748,5.579929834,4.35,'11111222,11111222,11111222' 
TABS,ioos:station:wmo:42043:1,2014-07-03T16:30:00Z,28.9818,-94.9186,4.0,3.085854825,12.72995779,3.97,'11111222,11111222,11111222' 
TABS,ioos:station:wmo:42043:1,2014-07-03T17:00:00Z,28.9818,-94.9186,4.0,2.901258348,16.62333198,3.94,'11111222,11111222,11111222' 
TABS,ioos:station:wmo:42043:1,2014-07-03T17:30:00Z,28.9818,-94.9186,4.0,2.458149711,32.20275351,3.38,'11111222,11111222,11111222' 
TABS,ioos:station:wmo:42043:1,2014-07-03T18:00:00Z,28.9818,-94.9186,4.0,2.2243426,30.83094735,2.96,'11111222,11111222,11111222' 
TABS,ioos:station:wmo:42043:1,2014-07-03T18:30:00Z,28.9818,-94.9186,4.0,2.727196363,39.64387179,3.43,'11111222,11111222,11111222' 
TABS,ioos:station:wmo:42043:1,2014-07-03T19:00:00Z,28.9818,-94.9186,4.0,2.550548961,50.56801313,3.33,'11111222,11111222,11111222' 
TABS,ioos:station:wmo:42043:1,2014-07-03T19:30:00Z,28.9818,-94.9186,4.0,1.364844313,55.14520502,2.07,'11111222,11111222,11111222' 
TABS,ioos:station:wmo:42043:1,2014-07-03T20:00:00Z,28.9818,-94.9186,4.0,1.31041978,105.9457795,2.05,'11111222,11111222,11111222' 
TABS,ioos:station:wmo:42043:1,2014-07-03T20:30:00Z,28.9818,-94.9186,4.0,1.838967101,114.753743,2.48,'11111222,11111222,11111222' 
TABS,ioos:station:wmo:42043:1,2014-07-03T21:00:00Z,28.9818,-94.9186,4.0,1.744276354,152.7007021,2.5,'11111222,11111222,11111222' 
TABS,ioos:station:wmo:42043:1,2014-07-03T21:30:00Z,28.9818,-94.9186,4.0,1.675470083,156.8016742,2.7,'11111222,11111222,11111222' 
TABS,ioos:station:wmo:42043:1,2014-07-03T22:00:00Z,28.9818,-94.9186,4.0,0.820365772,134.0125576,1.5,'11111222,11111222,11111222' 
TABS,ioos:station:wmo:42043:1,2014-07-03T22:30:00Z,28.9818,-94.9186,4.0,0.883232699,120.6303478,1.75,'11111222,11111222,11111222' 
TABS,ioos:station:wmo:42043:1,2014-07-03T23:00:00Z,28.9818,-94.9186,4.0,1.673618834,86.23105819,2.45,'11111222,11111222,11111222' 
TABS,ioos:station:wmo:42043:1,2014-07-03T23:30:00Z,28.9818,-94.9186,4.0,2.851876575,95.23121586,3.67,'11111222,11111222,11111222' 
TABS,ioos:station:wmo:42043:1,2014-07-04T00:00:00Z,28.9818,-94.9186,4.0,4.399011253,79.12391618,5.74,'11111222,11111222,11111222' 
TABS,ioos:station:wmo:42043:1,2014-07-04T00:30:00Z,28.9818,-94.9186,4.0,4.291037171,78.84679052,5.63,'11111222,11111222,11111222' 
TABS,ioos:station:wmo:42043:1,2014-07-04T01:00:00Z,28.9818,-94.9186,4.0,3.422294552,96.54396972,4.37,'11111222,11111222,11111222' 
TABS,ioos:station:wmo:42043:1,2014-07-04T01:30:00Z,28.9818,-94.9186,4.0,3.363941141,100.274775,4.18,'11111222,11111222,11111222' 
TABS,ioos:station:wmo:42043:1,2014-07-04T02:00:00Z,28.9818,-94.9186,4.0,2.853296339,113.3307923,3.69,'11111222,11111222,11111222' 
TABS,ioos:station:wmo:42043:1,2014-07-04T02:30:00Z,28.9818,-94.9186,4.0,3.74232548,104.0737642,5.04,'11111222,11111222,11111222' 
TABS,ioos:station:wmo:42043:1,2014-07-04T03:00:00Z,28.9818,-94.9186,4.0,3.065371103,100.9071013,3.76,'11111222,11111222,11111222' 
TABS,ioos:station:wmo:42043:1,2014-07-04T03:30:00Z,28.9818,-94.9186,4.0,1.762554964,96.84317833,2.51,'11111222,11111222,11111222' 
TABS,ioos:station:wmo:42043:1,2014-07-04T04:00:00Z,28.9818,-94.9186,4.0,1.515288751,106.8807116,2.03,'11111222,11111222,11111222' 
TABS,ioos:station:wmo:42043:1,2014-07-04T04:30:00Z,28.9818,-94.9186,4.0,1.789413312,115.1333171,2.47,'11111222,11111222,11111222' 
TABS,ioos:station:wmo:42043:1,2014-07-04T05:00:00Z,28.9818,-94.9186,4.0,3.139554108,44.99968431,4.64,'11111222,11111222,11111222' 
TABS,ioos:station:wmo:42043:1,2014-07-04T05:30:00Z,28.9818,-94.9186,4.0,5.094487217,42.93157353,6.39,'11111222,11111222,11111222' 
TABS,ioos:station:wmo:42043:1,2014-07-04T06:00:00Z,28.9818,-94.9186,4.0,4.523052067,49.12358223,5.84,'11111222,11111222,11111222' 
TABS,ioos:station:wmo:42043:1,2014-07-04T06:30:00Z,28.9818,-94.9186,4.0,3.316926288,59.5691379,4.41,'11111222,11111222,11111222' 
TABS,ioos:station:wmo:42043:1,2014-07-04T07:00:00Z,28.9818,-94.9186,4.0,2.953116997,41.84269161,4.18,'11111222,11111222,11111222' 
TABS,ioos:station:wmo:42043:1,2014-07-04T07:30:00Z,28.9818,-94.9186,4.0,2.482780699,49.57359488,3.6,'11111222,11111222,11111222' 
TABS,ioos:station:wmo:42043:1,2014-07-04T08:00:00Z,28.9818,-94.9186,4.0,2.487810282,65.2888374,3.36,'11111222,11111222,11111222' 
TABS,ioos:station:wmo:42043:1,2014-07-04T08:30:00Z,28.9818,-94.9186,4.0,2.64871667,56.5495707,3.38,'11111222,11111222,11111222' 
TABS,ioos:station:wmo:42043:1,2014-07-04T09:00:00Z,28.9818,-94.9186,4.0,2.082162338,69.47578859,3.21,'11111222,11111222,11111222' 
TABS,ioos:station:wmo:42043:1,2014-07-04T09:30:00Z,28.9818,-94.9186,4.0,3.412696881,66.51445675,4.22,'11111222,11111222,11111222' 
TABS,ioos:station:wmo:42043:1,2014-07-04T10:00:00Z,28.9818,-94.9186,4.0,4.237381267,65.30949075,5.4,'11111222,11111222,11111222' 
TABS,ioos:station:wmo:42043:1,2014-07-04T10:30:00Z,28.9818,-94.9186,4.0,3.978190543,55.03123859,5.02,'11111222,11111222,11111222' 
TABS,ioos:station:wmo:42043:1,2014-07-04T11:00:00Z,28.9818,-94.9186,4.0,4.046492308,51.118729,5.12,'11111222,11111222,11111222' 
TABS,ioos:station:wmo:42043:1,2014-07-04T11:30:00Z,28.9818,-94.9186,4.0,4.414612101,43.16391386,5.45,'11111222,11111222,11111222' 
TABS,ioos:station:wmo:42043:1,2014-07-04T12:00:00Z,28.9818,-94.9186,4.0,4.29660331,35.90942865,5.43,'11111222,11111222,11111222' 
TABS,ioos:station:wmo:42043:1,2014-07-04T12:30:00Z,28.9818,-94.9186,4.0,3.556472972,37.80403652,4.86,'11111222,11111222,11111222' 
TABS,ioos:station:wmo:42043:1,2014-07-04T13:00:00Z,28.9818,-94.9186,4.0,3.500185709,44.88393569,4.8,'11111222,11111222,11111222' 
TABS,ioos:station:wmo:42043:1,2014-07-04T13:30:00Z,28.9818,-94.9186,4.0,4.556369169,37.5989618,5.6,'11111222,11111222,11111222' 
TABS,ioos:station:wmo:42043:1,2014-07-04T14:00:00Z,28.9818,-94.9186,4.0,4.752315225,30.61197105,6.12,'11111222,11111222,11111222' 
TABS,ioos:station:wmo:42043:1,2014-07-04T14:30:00Z,28.9818,-94.9186,4.0,4.776107201,36.48571629,5.97,'11111222,11111222,11111222' 
TABS,ioos:station:wmo:42043:1,2014-07-04T15:00:00Z,28.9818,-94.9186,4.0,4.629049578,38.94946264,5.83,'11111222,11111222,11111222' 
TABS,ioos:station:wmo:42043:1,2014-07-04T15:30:00Z,28.9818,-94.9186,4.0,4.862972342,55.13311952,6.26,'11111222,11111222,11111222' 
TABS,ioos:station:wmo:42043:1,2014-07-04T16:00:00Z,28.9818,-94.9186,4.0,5.091365239,71.20880437,6.44,'11111222,11111222,11111222' 
TABS,ioos:station:wmo:42043:1,2014-07-04T16:30:00Z,28.9818,-94.9186,4.0,4.859681059,66.59978901,5.88,'11111222,11111222,11111222' 
TABS,ioos:station:wmo:42043:1,2014-07-04T17:00:00Z,28.9818,-94.9186,4.0,4.868562416,74.87867765,5.93,'11111222,11111222,11111222' 
TABS,ioos:station:wmo:42043:1,2014-07-04T17:30:00Z,28.9818,-94.9186,4.0,5.165471905,70.19657448,6.23,'11111222,11111222,11111222' 
TABS,ioos:station:wmo:42043:1,2014-07-04T18:00:00Z,28.9818,-94.9186,4.0,4.879108525,63.32955688,6.13,'11111222,11111222,11111222' 
TABS,ioos:station:wmo:42043:1,2014-07-04T18:30:00Z,28.9818,-94.9186,4.0,5.368146794,66.15635386,6.85,'11111222,11111222,11111222' 